sat.trackr.live / text

‹ back to catalog

TJS-11

NORAD 59020 · 2024-037A

PAYLOAD ACTIVE UNKNOWN

§ Identity

Operator
Country
PRC
Launch date
2024-02-23
Launch site
WSC
Launch vehicle
Mass (kg)
RCS (m²)

Purposes: comms

External: N2YO · Heavens-Above · Gunter

§ Orbital elements

Epoch: 2026-09-19T20:44:52.610784Z

Period
1,436.03 min
Inclination
4.0829°
Eccentricity
0.0002084
Mean motion
1.00276336 rev/d
Perigee alt
35,776.5 km
Apogee alt
35,794.1 km
Semi-major
42,163.5 km
B*
0.0000e+0
RAAN
328.3098°
Arg perigee
277.5876°
Mean anomaly
176.5946°
Rev number
953

§ Raw data

TJS-111 59020U 24037A   26262.86449781 -.00000366  00000+0  00000+0 0  99912 59020   4.0829 328.3098 0002084 277.5876 176.5946  1.00276336  9533

JSON: /api/v1/satellites/59020 · /tle

For live sub-satellite position, see the globe view (requires WebGL).

§ Visibility from observer

Set your observer location to see the next 7 days of passes ≥ 10°. The values pass through the URL so the page stays shareable.

No JS? Fill the form by hand. The geolocation button needs JavaScript.